DW5684 Weather Reports


Display with metric or nautical units.
time (UTC)temp
F
wind
direction
speed
MPH
gust
MPH
rain 1hr
in
rain 24hr
in
rain mn
in
humidity
%
barometer
mb
20260505054802 66 162 1.0 2.0 0.00 0.00 0.00 76 1005.2
20260505054336 66 193 0.0 3.0 0.00 0.00 0.00 77 1005.3
20260505053810 66 162 0.0 2.0 0.00 0.00 0.00 77 1005.5
20260505053309 65 195 0.0 2.0 0.00 0.00 0.00 77 1005.6
20260505052804 65 166 0.0 2.0 0.00 0.00 0.00 77 1005.8
20260505052317 65 217 0.0 2.0 0.00 0.00 0.00 77 1005.9
20260505051812 65 170 0.0 2.0 0.00 0.00 0.00 77 1005.8
20260505051305 65 198 0.0 2.0 0.00 0.00 0.00 77 1005.5
20260505050818 65 135 0.0 5.0 0.00 0.00 0.00 77 1005.3
20260505050333 65 174 1.0 7.0 0.00 0.00 0.00 76 1005.1
20260505041302 66 181 2.0 5.0 0.00 0.00 0.00 75 1005.5
20260505040801 67 178 1.0 6.0 0.00 0.00 0.00 74 1005.6
20260505040316 67 171 3.0 7.0 0.00 0.00 0.00 73 1005.6
20260505035811 67 181 1.0 7.0 0.00 0.00 0.00 73 1005.6
20260505035305 67 158 2.0 6.0 0.00 0.00 0.00 72 1005.6
20260505034759 68 188 1.0 6.0 0.00 0.00 0.00 72 1005.6
20260505034314 68 155 2.0 6.0 0.00 0.00 0.00 72 1005.7
20260505033809 68 190 1.0 5.0 0.00 0.00 0.00 71 1005.8
20260505033304 68 172 1.0 6.0 0.00 0.00 0.00 71 1005.8
20260505032802 68 175 2.0 6.0 0.00 0.00 0.00 71 1006.0
20260505032316 68 262 2.0 6.0 0.00 0.00 0.00 71 1005.8
20260505031810 69 148 1.0 6.0 0.00 0.00 0.00 70 1005.8
20260505031306 69 154 2.0 6.0 0.00 0.00 0.00 70 1006.0
20260505030802 69 188 2.0 7.0 0.00 0.00 0.00 69 1005.8
20260505030338 69 148 2.0 8.0 0.00 0.00 0.00 69 1005.8
20260505025811 69 200 3.0 8.0 0.00 0.00 0.00 68 1005.8
20260505025307 70 207 2.0 6.0 0.00 0.00 0.00 68 1006.0
20260505024802 70 153 1.0 6.0 0.00 0.00 0.00 67 1006.0
20260505024301 70 221 2.0 6.0 0.00 0.00 0.00 68 1005.8
20260505023816 70 208 3.0 10.0 0.00 0.00 0.00 68 1005.7
20260505023311 70 233 3.0 10.0 0.00 0.00 0.00 69 1005.7
20260505022806 70 208 2.0 4.0 0.00 0.00 0.00 69 1005.8
20260505022301 70 222 1.0 5.0 0.00 0.00 0.00 68 1005.8
20260505021815 70 181 2.0 5.0 0.00 0.00 0.00 68 1005.8
20260505021330 70 218 0.0 4.0 0.00 0.00 0.00 68 1005.8
20260505020825 70 212 1.0 4.0 0.00 0.00 0.00 68 1005.8
20260505020318 70 200 1.0 7.0 0.00 0.00 0.00 68 1005.7
20260505015833 70 217 3.0 7.0 0.00 0.00 0.00 69 1005.7
20260505015312 70 221 1.0 4.0 0.00 0.00 0.00 69 1005.6
20260505014806 70 212 0.0 3.0 0.00 0.00 0.00 69 1005.7
20260505014300 71 205 0.0 3.0 0.00 0.00 0.00 68 1005.7
20260505013815 71 225 0.0 3.0 0.00 0.00 0.00 66 1005.5
20260505013310 71 227 1.0 5.0 0.00 0.00 0.00 66 1005.4
20260505012805 72 215 0.0 5.0 0.00 0.00 0.00 65 1005.4
20260505012300 72 141 0.0 0.0 0.00 0.00 0.00 65 1005.3
20260505011818 72 217 0.0 4.0 0.00 0.00 0.00 65 1005.2
20260505011313 72 207 0.0 4.0 0.00 0.00 0.00 64 1005.2
20260505010808 73 223 1.0 4.0 0.00 0.00 0.00 63 1005.1
20260505010302 73 166 1.0 4.0 0.00 0.00 0.00 63 1004.9
20260505005817 73 237 1.0 5.0 0.00 0.00 0.00 62 1005.2
20260505005313 73 217 1.0 5.0 0.00 0.00 0.00 63 1005.0
20260505004827 73 230 2.0 5.0 0.00 0.00 0.00 63 1004.9
20260505004259 73 191 0.0 3.0 0.00 0.00 0.00 63 1004.8
20260505003813 74 230 1.0 3.0 0.00 0.00 0.00 62 1004.8
20260505003312 74 220 0.0 5.0 0.00 0.00 0.00 62 1004.7
20260505002807 74 225 1.0 5.0 0.00 0.00 0.00 62 1004.6
20260505002303 74 220 0.0 3.0 0.00 0.00 0.00 61 1004.7
20260505001817 75 227 0.0 3.0 0.00 0.00 0.00 61 1004.7
20260505001310 75 186 0.0 4.0 0.00 0.00 0.00 61 1004.6
20260505000805 75 210 1.0 4.0 0.00 0.00 0.00 60 1004.5
20260505000300 76 217 0.0 5.0 0.00 0.00 0.00 59 1004.5
20260504235814 76 175 3.0 9.0 0.00 0.00 0.00 57 1004.4
20260504235313 76 214 3.0 9.0 0.00 0.00 0.00 57 1004.5
20260504234808 76 209 0.0 8.0 0.00 0.00 0.00 57 1004.5
20260504234301 77 219 2.0 8.0 0.00 0.00 0.00 55 1004.5
20260504233815 77 171 2.0 8.0 0.00 0.00 0.00 55 1004.6
20260504233311 77 224 2.0 7.0 0.00 0.00 0.00 55 1004.6
20260504232806 78 235 5.0 8.0 0.00 0.00 0.00 54 1004.6
20260504232340 78 212 3.0 11.0 0.00 0.00 0.00 54 1004.6
20260504231834 78 214 3.0 11.0 0.00 0.00 0.00 54 1004.5
20260504231308 79 209 4.0 8.0 0.00 0.00 0.00 54 1004.5
20260504230806 79 207 2.0 8.0 0.00 0.00 0.00 54 1004.5
20260504230301 79 230 4.0 9.0 0.00 0.00 0.00 54 1004.4
20260504225836 79 236 4.0 9.0 0.00 0.00 0.00 53 1004.4
20260504225310 79 212 4.0 9.0 0.00 0.00 0.00 52 1004.5
20260504224805 80 221 2.0 6.0 0.00 0.00 0.00 55 1004.5
20260504224319 79 278 1.0 8.0 0.00 0.00 0.00 53 1004.5
20260504223833 79 229 2.0 9.0 0.00 0.00 0.00 52 1004.5
20260504223307 80 239 6.0 11.0 0.00 0.00 0.00 51 1004.4
20260504222802 80 223 3.0 11.0 0.00 0.00 0.00 53 1004.4
20260504222301 80 167 3.0 7.0 0.00 0.00 0.00 52 1004.4
20260504221815 81 213 3.0 11.0 0.00 0.00 0.00 55 1004.4
20260504221309 81 228 4.0 13.0 0.00 0.00 0.00 50 1004.4
20260504220803 81 186 6.0 13.0 0.00 0.00 0.00 50 1004.4
20260504220318 81 208 4.0 9.0 0.00 0.00 0.00 52 1004.5
20260504215832 82 191 4.0 9.0 0.00 0.00 0.00 51 1004.4
20260504215305 82 218 2.0 8.0 0.00 0.00 0.00 51 1004.5
20260504214800 82 221 2.0 14.0 0.00 0.00 0.00 50 1004.5
20260504214259 81 217 5.0 14.0 0.00 0.00 0.00 50 1004.6
20260504213814 81 224 4.0 9.0 0.00 0.00 0.00 52 1004.6
20260504213309 80 205 4.0 11.0 0.00 0.00 0.00 52 1004.5
20260504212804 80 208 3.0 11.0 0.00 0.00 0.00 52 1004.5
20260504212318 80 291 3.0 12.0 0.00 0.00 0.00 52 1004.6
20260504211833 81 248 7.0 16.0 0.00 0.00 0.00 52 1004.6
20260504211307 80 228 7.0 16.0 0.00 0.00 0.00 50 1004.8
20260504210801 81 217 4.0 12.0 0.00 0.00 0.00 50 1004.7
20260504210300 81 197 6.0 12.0 0.00 0.00 0.00 50 1004.7
20260504205835 82 245 5.0 13.0 0.00 0.00 0.00 51 1004.9
20260504205308 81 219 5.0 13.0 0.00 0.00 0.00 50 1005.0
20260504204802 82 216 5.0 12.0 0.00 0.00 0.00 51 1005.0
20260504204316 81 197 7.0 12.0 0.00 0.00 0.00 51 1005.0
20260504203810 81 221 5.0 13.0 0.00 0.00 0.00 51 1005.2
20260504203305 81 205 9.0 13.0 0.00 0.00 0.00 49 1005.2
20260504202820 81 229 5.0 11.0 0.00 0.00 0.00 50 1005.3
20260504202314 81 188 6.0 13.0 0.00 0.00 0.00 50 1005.3
20260504201810 81 219 5.0 14.0 0.00 0.00 0.00 50 1005.3
20260504201329 81 202 5.0 14.0 0.00 0.00 0.00 50 1005.3
20260504200803 81 184 4.0 14.0 0.00 0.00 0.00 53 1005.4
20260504200318 81 217 3.0 14.0 0.00 0.00 0.00 52 1005.5
20260504195812 81 219 5.0 12.0 0.00 0.00 0.00 50 1005.6
20260504195328 81 215 4.0 12.0 0.00 0.00 0.00 52 1005.5
20260504194801 80 209 4.0 15.0 0.00 0.00 0.00 52 1005.6
20260504194317 80 225 6.0 12.0 0.00 0.00 0.00 49 1005.8
20260504193811 81 226 6.0 12.0 0.00 0.00 0.00 51 1005.8
20260504193306 81 214 5.0 12.0 0.00 0.00 0.00 52 1006.0
20260504192804 81 201 4.0 9.0 0.00 0.00 0.00 50 1006.0
20260504192259 81 236 2.0 13.0 0.00 0.00 0.00 50 1006.1
20260504191814 81 219 4.0 13.0 0.00 0.00 0.00 50 1006.1
20260504191309 80 207 4.0 13.0 0.00 0.00 0.00 50 1006.1
20260504190803 80 170 8.0 13.0 0.00 0.00 0.00 50 1006.1
20260504190317 80 120 8.0 12.0 0.00 0.00 0.00 50 1006.1
20260504185812 80 223 3.0 14.0 0.00 0.00 0.00 52 1006.1
20260504185327 80 223 5.0 11.0 0.00 0.00 0.00 51 1006.2
20260504184804 80 240 6.0 11.0 0.00 0.00 0.00 52 1006.2
20260504184319 80 179 3.0 10.0 0.00 0.00 0.00 52 1006.3
20260504183814 80 207 5.0 12.0 0.00 0.00 0.00 51 1006.2
20260504183307 80 231 6.0 12.0 0.00 0.00 0.00 53 1006.2
20260504182803 80 219 4.0 15.0 0.00 0.00 0.00 52 1006.2
20260504182315 80 227 6.0 15.0 0.00 0.00 0.00 51 1006.3
20260504181808 79 240 5.0 14.0 0.00 0.00 0.00 51 1006.3
20260504181302 80 236 7.0 14.0 0.00 0.00 0.00 50 1006.2
20260504180815 80 232 5.0 11.0 0.00 0.00 0.00 51 1006.3
20260504180314 80 240 5.0 11.0 0.00 0.00 0.00 52 1006.3
20260504175807 79 203 5.0 12.0 0.00 0.00 0.00 55 1006.3
20260504175304 78 223 7.0 14.0 0.00 0.00 0.00 51 1006.3
20260504174837 78 127 6.0 14.0 0.00 0.00 0.00 50 1006.4
20260504174310 78 198 7.0 13.0 0.00 0.00 0.00 51 1006.3
20260504173805 78 230 8.0 13.0 0.00 0.00 0.00 51 1006.2
20260504173300 78 223 7.0 14.0 0.00 0.00 0.00 54 1006.3
20260504172815 78 185 7.0 14.0 0.00 0.00 0.00 52 1006.2
20260504172309 78 209 6.0 13.0 0.00 0.00 0.00 52 1006.3
20260504171808 77 212 5.0 17.0 0.00 0.00 0.00 53 1006.3
20260504171304 77 216 6.0 18.0 0.00 0.00 0.00 52 1006.3
20260504170818 77 233 9.0 18.0 0.00 0.00 0.00 52 1006.4
20260504170332 77 203 6.0 16.0 0.00 0.00 0.00 53 1006.3
20260504160326 75 184 7.0 14.0 0.00 0.00 0.00 56 1006.9
20260504150809 72 131 7.0 14.0 0.00 0.00 0.00 56 1007.1
20260504150304 72 217 6.0 14.0 0.00 0.00 0.00 57 1007.1
20260504141314 70 231 6.0 15.0 0.00 0.00 0.00 56 1007.8
20260504140808 70 217 4.0 11.0 0.00 0.00 0.00 57 1007.9
20260504140323 70 215 6.0 12.0 0.00 0.00 0.00 57 1007.9
20260504130800 66 184 7.0 13.0 0.00 0.00 0.00 61 1008.3
20260504130300 66 141 6.0 11.0 0.00 0.00 0.00 61 1008.3
20260504120300 61 166 3.0 10.0 0.00 0.00 0.00 67 1008.4
20260504110306 61 138 2.0 8.0 0.00 0.00 0.00 65 1008.7
20260504100310 63 219 1.0 6.0 0.00 0.00 0.00 62 1009.1
20260504081823 64 159 3.0 10.0 0.00 0.00 0.00 60 1009.3
20260504081316 64 218 2.0 10.0 0.00 0.00 0.00 61 1009.4
20260504080811 64 228 2.0 7.0 0.00 0.00 0.00 61 1009.4
20260504080306 65 207 3.0 7.0 0.00 0.00 0.00 60 1009.5
20260504070308 65 207 3.0 9.0 0.00 0.00 0.00 61 1010.0